Mount Isa Airport
YBMA : now visible

Airfield :











YOU CAN JOIN US ON...

 
LOGIN :

Register | Disclaimer

   EN    FR    IT 

 









Legend :    VFR   Marginal VFR   IFR   Intensive IFR   Very Intensive IFR
Visi :
Ceiling :
>= 8 km
>= 3000ft
5 to 8 km
1000 to 3000 ft
1500m to 5 km
500 to 1000 ft
800 to 1500m
200 to 500 ft
< 800m
< 200 ft
Symbols :   Thunderstorms  Fog  Heavy snow  Heavy precipitations  Wind > 20 kt






- Airport Elevation : 1121 ft
- IATA code : ISA


YBMA - Mount Isa

CURRENT METAR :
  • 041430Z AUTO 16007KT 9999 // NCD 13/M03 Q1025 RF00.0/000.0

EXPIRED METARs :
  • 041400Z AUTO 17007KT 9999 // NCD 12/M03 Q1025 RF00.0/000.0
  • 041330Z AUTO 17004KT 9999 // NCD 10/M03 Q1025 RF00.0/000.0
  • 041300Z AUTO 00000KT 9999 // NCD 09/M04 Q1025
  • 041230Z AUTO 17004KT 9999 // NCD 12/M03 Q1025 RF00.0/000.0
  • 041200Z AUTO 16005KT 9999 // NCD 13/M03 Q1025 RF00.0/000.0

TAF TAF YBMA
Valid from the 04 at 12:00 until the 05 at 00:00 UTC


041042Z 0412/0500 16008KT CAVOK
FM042300 14016KT CAVOK
YBBB FIR / Oceania



MET'MAP, your aeronautical weather chart ! - Copyright ORBIFLY December 2007 - Disclaimer

ORBIFLY MET'MAP TEAM :

Programming & Development : Alexandra Zaïnal
Concept & original design : Baudouin d'Aumeries
Assistance for programming : Marc-Olivier Méhu
Technical & hardware support : Manuel Goepfert

Contact : metmap@orbifly.com




SOURCES & CREDITS :

   NOAA       Earth
Advisory